BMCB-11 Weather Reports


time (UTC)temp
C
wind
direction
speed
KPH
gust
KPH
rain 1hr
cm
rain 24hr
cm
rain mn
cm
humidity
%
barometer
mb
20260507090017 11 0 0.0 0.0 0.00 0.03 0.00 77 1016.8
20260507085020 11 0 0.0 0.0 0.00 0.03 0.00 78 1016.8
20260507084017 11 0 0.0 0.0 0.00 0.03 0.00 80 1016.8
20260507083017 10 0 0.0 0.0 0.00 0.03 0.00 80 1016.8
20260507081018 10 0 0.0 0.0 0.00 0.03 0.00 81 1016.7
20260507080020 10 0 0.0 0.0 0.00 0.03 0.00 84 1016.6
20260507075021 10 0 0.0 0.0 0.00 0.03 0.00 84 1016.6
20260507074021 10 0 0.0 0.0 0.00 0.03 0.00 86 1016.5
20260507073019 10 0 0.0 0.0 0.00 0.03 0.00 88 1016.4
20260507071020 8 0 0.0 0.0 0.00 0.03 0.00 90 1016.4
20260507070019 8 0 0.0 0.0 0.00 0.03 0.00 92 1016.4
20260507064019 8 0 0.0 0.0 0.00 0.03 0.00 93 1016.3
20260507063018 8 0 0.0 0.0 0.00 0.03 0.00 94 1016.2
20260507062020 8 0 0.0 0.0 0.00 0.03 0.00 95 1016.1
20260507061021 8 0 0.0 0.0 0.00 0.03 0.00 96 1016.1
20260507060020 7 0 0.0 0.0 0.00 0.03 0.00 96 1016.0
20260507054017 7 0 0.0 0.0 0.00 0.03 0.00 98 1015.8
20260507052020 7 0 0.0 0.0 0.00 0.03 0.00 10 1015.7
20260507051018 7 0 0.0 0.0 0.00 0.03 0.00 10 1015.6
20260507045020 6 0 0.0 0.0 0.00 0.03 0.00 10 1015.4
20260507044021 6 0 0.0 0.0 0.00 0.05 0.00 10 1015.4
20260507043020 6 0 0.0 0.0 0.00 0.05 0.00 10 1015.4
20260507042021 6 0 0.0 0.0 0.00 0.05 0.00 10 1015.3
20260507041020 6 0 0.0 0.0 0.00 0.05 0.00 10 1015.3
20260507040021 6 0 0.0 0.0 0.00 0.05 0.00 10 1015.2
20260507035021 6 0 0.0 0.0 0.00 0.05 0.00 10 1015.2
20260507034021 6 0 0.0 0.0 0.00 0.05 0.00 10 1015.2
20260507033021 6 0 0.0 0.0 0.00 0.05 0.00 10 1015.1
20260507032022 6 0 0.0 0.0 0.00 0.05 0.00 10 1015.0
20260507031022 6 0 0.0 0.0 0.00 0.05 0.00 10 1015.0
20260507024019 6 0 0.0 0.0 0.00 0.05 0.00 10 1015.0
20260507023018 5 0 0.0 0.0 0.00 0.05 0.00 10 1015.0
20260507022022 5 0 0.0 0.0 0.00 0.05 0.00 10 1014.9
20260507021021 5 0 0.0 0.0 0.00 0.05 0.00 10 1014.8
20260507015020 5 0 0.0 0.0 0.00 0.08 0.00 10 1014.7
20260507013020 5 0 0.0 0.0 0.00 0.10 0.00 10 1014.7
20260507012020 5 0 0.0 0.0 0.00 0.10 0.00 10 1014.7
20260507011020 5 0 0.0 0.0 0.00 0.13 0.00 10 1014.7
20260507010023 5 0 0.0 0.0 0.00 0.13 0.00 10 1014.6
20260507005022 5 0 0.0 0.0 0.00 0.15 0.00 99 1014.7
20260507004022 5 0 0.0 0.0 0.00 0.15 0.00 99 1014.6
20260507003022 5 0 0.0 0.0 0.00 0.15 0.00 99 1014.6
20260507002020 5 0 0.0 0.0 0.00 0.15 0.00 99 1014.6
20260507001021 5 0 0.0 0.0 0.00 0.15 0.00 98 1014.5
20260506235022 5 0 0.0 0.0 0.00 0.15 0.00 98 1014.4
20260506234022 5 0 0.0 0.0 0.00 0.15 0.00 98 1014.4
20260506233046 5 0 0.0 0.0 0.00 0.15 0.00 97 1014.3
20260506232040 5 0 0.0 0.0 0.00 0.15 0.00 97 1014.2
20260506231022 5 0 0.0 0.0 0.00 0.18 0.00 96 1014.1
20260506230022 6 0 0.0 0.0 0.00 0.20 0.00 95 1014.1
20260506225037 6 0 0.0 0.0 0.00 0.20 0.00 94 1014.0
20260506221029 7 0 0.0 0.0 0.00 0.23 0.00 87 1013.7
20260506220057 8 0 0.0 0.0 0.00 0.23 0.00 86 1013.6
20260506215051 8 0 0.0 0.0 0.00 0.25 0.23 85 1013.6
20260506213049 8 0 0.0 0.0 0.00 0.28 0.23 87 1013.3
20260506212051 9 0 0.0 0.0 0.00 0.28 0.23 91 1013.3
20260506211049 9 0 0.0 0.0 0.00 0.28 0.23 90 1013.2
20260506210044 10 0 0.0 0.0 0.00 0.28 0.23 90 1013.1
20260506205050 10 0 0.0 0.0 0.00 0.28 0.23 89 1012.9
20260506204048 10 0 0.0 0.0 0.00 0.30 0.23 89 1012.9
20260506202051 10 0 0.0 0.0 0.00 0.30 0.23 88 1012.7
20260506201053 10 0 0.0 0.0 0.00 0.30 0.23 87 1012.6
20260506200051 10 0 0.0 0.0 0.00 0.30 0.23 86 1012.5
20260506195047 10 0 0.0 0.0 0.00 0.30 0.23 85 1012.3
20260506194050 10 0 0.0 0.0 0.00 0.33 0.23 86 1012.2
20260506193049 10 0 0.0 0.0 0.00 0.33 0.23 87 1012.2
20260506192049 10 0 0.0 0.0 0.00 0.33 0.23 88 1012.1
20260506191049 10 0 0.0 0.0 0.00 0.33 0.23 88 1012.0
20260506190051 10 0 0.0 0.0 0.00 0.33 0.23 89 1011.9
20260506185048 10 0 0.0 0.0 0.00 0.33 0.23 90 1011.8
20260506184041 10 0 0.0 0.0 0.00 0.33 0.23 89 1011.7
20260506183051 10 0 0.0 0.0 0.00 0.33 0.23 89 1011.6
20260506182051 10 0 0.0 0.0 0.00 0.33 0.23 88 1011.5
20260506181046 10 0 0.0 0.0 0.00 0.33 0.23 88 1011.4
20260506180049 10 0 0.0 0.0 0.00 0.33 0.23 88 1011.3
20260506175051 11 0 0.0 0.0 0.00 0.33 0.23 88 1011.2
20260506174048 11 0 0.0 0.0 0.00 0.33 0.23 88 1011.0
20260506173047 11 0 0.0 0.0 0.00 0.33 0.23 88 1010.9
20260506172049 11 0 0.0 0.0 0.00 0.33 0.23 88 1010.9
20260506171048 11 0 0.0 0.0 0.00 0.33 0.23 87 1010.8
20260506170048 11 0 0.0 0.0 0.00 0.33 0.23 87 1010.8
20260506165045 11 0 0.0 0.0 0.00 0.33 0.23 86 1010.7
20260506164048 11 0 0.0 0.0 0.00 0.33 0.23 85 1010.7
20260506162046 11 0 0.0 0.0 0.00 0.33 0.23 85 1010.7
20260506161048 11 0 0.0 0.0 0.00 0.33 0.23 86 1010.7
20260506160047 11 0 0.0 0.0 0.00 0.33 0.23 86 1010.7
20260506155048 11 0 0.0 0.0 0.00 0.33 0.23 86 1010.7
20260506154052 11 0 0.0 0.0 0.00 0.33 0.23 86 1010.7
20260506153048 11 0 0.0 0.0 0.00 0.33 0.23 84 1010.7
20260506151050 11 0 0.0 0.0 0.00 0.33 0.23 83 1010.6
20260506150048 11 0 0.0 0.0 0.00 0.33 0.23 83 1010.6
20260506145050 12 0 0.0 0.0 0.00 0.33 0.23 83 1010.6
20260506144047 12 0 0.0 0.0 0.00 0.33 0.23 82 1010.4
20260506143045 12 0 0.0 0.0 0.00 0.33 0.23 82 1010.4
20260506142047 12 0 0.0 0.0 0.00 0.33 0.23 82 1010.4
20260506141047 12 0 0.0 0.0 0.00 0.33 0.23 83 1010.5
20260506135049 12 0 0.0 0.0 0.03 0.33 0.23 83 1010.4
20260506133047 11 0 0.0 0.0 0.03 0.33 0.23 86 1010.5
20260506132048 11 0 0.0 0.0 0.03 0.33 0.23 87 1010.5
20260506131047 11 0 0.0 0.0 0.03 0.33 0.23 89 1010.6
20260506125047 11 0 0.0 0.0 0.03 0.33 0.23 90 1010.4
20260506124045 11 0 0.0 0.0 0.00 0.30 0.23 89 1010.3
20260506123048 11 0 0.0 0.0 0.00 0.30 0.23 91 1010.2
20260506122048 11 0 0.0 0.0 0.00 0.30 0.23 93 1010.3
20260506121045 10 0 0.0 0.0 0.00 0.33 0.23 96 1010.4
20260506120046 10 0 0.0 0.0 0.00 0.33 0.23 97 1010.4
20260506115047 10 0 0.0 0.0 0.00 0.33 0.23 96 1010.4
20260506114022 10 0 0.0 0.0 0.00 0.33 0.23 95 1010.5
20260506113016 10 0 0.0 0.0 0.00 0.33 0.23 96 1010.5
20260506111021 9 0 0.0 0.0 0.00 0.33 0.23 98 1010.5
20260506110021 9 0 0.0 0.0 0.00 0.33 0.23 99 1010.5
20260506105022 8 0 0.0 0.0 0.00 0.33 0.23 10 1010.6
20260506103021 8 0 0.0 0.0 0.00 0.33 0.23 99 1010.4
20260506102023 8 0 0.0 0.0 0.00 0.33 0.23 99 1010.4
20260506101018 8 0 0.0 0.0 0.00 0.33 0.23 99 1010.3
20260506100021 8 0 0.0 0.0 0.00 0.33 0.23 99 1010.2
20260506095023 8 0 0.0 0.0 0.00 0.33 0.23 98 1010.2
20260506094030 8 0 0.0 0.0 0.00 0.33 0.23 98 1010.2
20260506093022 8 0 0.0 0.0 0.00 0.33 0.23 98 1010.2
20260506092022 8 0 0.0 0.0 0.00 0.33 0.23 98 1010.1
20260506091023 8 0 0.0 0.0 0.00 0.33 0.23 99 1010.0